SL-14 DEB, 43320

Orbit data source: Space-Track

SL-14 DEB, 43320 is space debris in LEO originally from a launch on Tue, 02 Dec 1986 UTC launched from the Plesetsk Missile And Space Complex (PKMTR). Debris objects in space refer to the collection of defunct objects orbiting the Earth. Examples of debris include non-operational satellites, rocket bodies, and fragments generated from explosions, collisions, or faulty payload assembly.

Loading next visibility...
Identifier
43320, 1986-094C
Orbit
LEO
Country
Flag of CISCIS
Related business
Manufacturer
Unknown
Mission
Spacecraft
Bus & Motor
Unknown
Mass
Unknown
Launch date (UTC)
1986-12-02 (39 years ago)
Launch vehicle
Unknown
Launch site
Plesetsk Missile And Space Complex (PKMTR)
Object type
Payload
Rocket body
Debris
Shape & HBR
Unknown shape, 0.1 m
Radar Cross Section
Small (<0.1 m²)

Expand to show TLE details & history
Last TLE update: 1 week ago

TLE from 1 week ago
0 SL-14 DEB
1 43320U 86094C   25294.34577236  .00000079  00000-0  50125-3 0  9990
2 43320  82.6031 152.3383 0004076 234.9222 125.1475 12.42170044459110
Epoch: 2025-10-21T08:17Z
TLE epoch observation values (Epoch: 2025-10-21T08:17:54.731Z)
Latitude
-0.0001°
Longitude
-2.17482°
Altitude
1,501.968 km
Speed
7.113 km/s
True Right ascension
10h 09m 21s
True Declination
0° 00' 00"
Sunlit
Object was in daylight at epoch
Visualization orbit readout
Latitude
Unknown
Longitude
Unknown
Altitude
Unknown
Speed
Unknown
Apparent Right ascension
Unknown
Apparent Declination
Unknown
Sunlit
N/A
Visualization observer readout
Local Sidereal Time
15:56:37
Azimuth
Unknown
Elevation
Unknown
Doppler factor
Unknown
Orbital elements
Apogee altitude
1,497.975 km
Perigee altitude
1,491.557 km
Semi-major axis
7,872.903 km
Eccentricity
0.00041
Inclination
82.6031°
RAAN
152.3383°
Arg. of periapsis
234.9222°
True anomaly
125.18568°
Mean anomaly
125.1475°
Eccentric anomaly
125.16659°
Mean motion
3.107 °/min
Orbital period
115.87 mins
BSTAR
0.00050125
Loading maneuver chart data...
Computing Atmospheric mass density...
Loading historical data...
Loading historical data...
Loading historical data...
Loading historical data...
Loading historical data...
Loading historical data...
Loading historical data...
Other satellites on launch #94 in the year 1986 (1986-12-02 UTC)

Documentation

Showing up to 5 results
|